Flag for France Weather past 2 weeks in Grenoble, France

Now
84 °F

Passing clouds.


Feels Like: 83 °F
Forecast: 69 / 102 °F
Wind: 10 mph from West

Location: Grenoble / St. Geoirs

Current Time: Jul 4, 2015 at 11:23:33 AM

Latest Report: Jul 4, 2015 at 11:00 AM


Visibility: N/A

Pressure: 30.24 "Hg

Humidity: 40%

Dew point: 57 °F

Location of GrenobleLocation

Historic Weather in Grenoble — Graph

°F

Grenoble temperature yesterday

Maximum temperature yesterday: 91 °F (at 5:00 PM)
Minimum temperature yesterday: 63 °F (at 4:00 AM)
Average temperature yesterday: 80 °F

Past Weeks' High & Low Weather Summary

 TemperatureHumidityPressure
High91 °F (Jul 3, 5:00 PM)100% (Jun 25, 6:30 AM)30.27 "Hg (Jun 25, 6:30 AM)
Low46 °F (Jun 24, 4:30 AM)28% (Jun 26, 4:00 PM)29.86 "Hg (Jun 22, 7:30 PM)
Average70 °F58%30.13 "Hg
* Reported Jun 19 10:00 AM — Jul 4 10:00 AM, Grenoble, Weather by CustomWeather, © 2015

Note: Actual official high and low records may vary slightly from our data, if they occured in-between our weather recording intervals... More about our weather records

Advertising

Grenoble weather history for previous 24 hours

 ConditionsComfort  
Time TempWeatherWind HumidityBarometerVisibility
10:00 AM
Sat, Jul 4
84 °FSunny.No wind40%30.24 "Hg10 mi
9:30 AM81 °FPassing clouds.3 mph42%30.24 "HgN/A
9:00 AM81 °FSunny.1 mph39%30.24 "Hg10 mi
8:30 AM77 °FSunny.2 mph44%30.24 "Hg10 mi
8:00 AM75 °FSunny.2 mph57%30.24 "Hg10 mi
7:30 AM72 °FSunny.5 mph61%30.24 "Hg10 mi
7:00 AM66 °FSunny.5 mph73%30.24 "Hg10 mi
6:30 AM66 °FClear.5 mph68%30.24 "Hg10 mi
6:00 AM68 °FClear.2 mph60%30.24 "Hg10 mi
5:30 AM70 °FClear.2 mph60%30.24 "Hg10 mi
5:00 AM72 °FPassing clouds.5 mph53%30.24 "HgN/A
4:30 AM73 °FClear.7 mph50%30.24 "Hg10 mi
4:00 AM70 °FClear.No wind60%30.24 "Hg10 mi
3:30 AM72 °FClear.1 mph53%30.24 "Hg10 mi
3:00 AM70 °FPassing clouds.3 mph60%30.24 "HgN/A
2:30 AM73 °FPassing clouds.3 mph50%30.24 "HgN/A
2:00 AM75 °FClear.2 mph44%30.24 "Hg10 mi
1:30 AM77 °FPassing clouds.6 mph42%30.24 "HgN/A
1:00 AM77 °FPassing clouds.9 mph42%30.24 "HgN/A
12:30 AM79 °FPassing clouds.8 mph37%30.24 "HgN/A
12:00 AM79 °FPassing clouds.7 mph37%30.21 "HgN/A
11:30 PM
Fri, Jul 3
79 °FPassing clouds.6 mph37%30.21 "HgN/A
11:00 PM81 °FPassing clouds.6 mph34%30.21 "HgN/A
10:30 PM79 °FPassing clouds.7 mph42%30.21 "HgN/A
10:00 PM81 °FSunny.6 mph45%30.21 "Hg10 mi
9:30 PM81 °FSunny.6 mph48%30.21 "Hg10 mi
9:00 PM82 °FSunny.8 mph45%30.18 "Hg10 mi
8:30 PM86 °FPassing clouds.5 mph40%30.18 "HgN/A
8:00 PM88 °FPassing clouds.8 mph35%30.18 "HgN/A
7:30 PM88 °FPassing clouds.8 mph33%30.18 "HgN/A
7:00 PM90 °FSunny.3 mph36%30.18 "Hg10 mi
6:30 PM90 °FPassing clouds.8 mph31%30.18 "HgN/A
6:00 PM91 °FPassing clouds.9 mph32%30.18 "HgN/A
5:30 PM91 °FPassing clouds.10 mph30%30.18 "HgN/A
5:00 PM91 °FPassing clouds.10 mph32%30.21 "HgN/A
4:30 PM90 °FPassing clouds.10 mph38%30.21 "HgN/A
4:00 PM90 °FPassing clouds.8 mph36%30.21 "HgN/A
3:30 PM90 °FPassing clouds.6 mph33%30.21 "HgN/A
3:00 PM90 °FPassing clouds.5 mph33%30.21 "HgN/A
2:30 PM90 °FPassing clouds.8 mph36%30.24 "HgN/A
2:00 PM90 °FPassing clouds.5 mph33%30.24 "HgN/A
1:30 PM86 °FPassing clouds.7 mph35%30.24 "HgN/A
1:00 PM88 °FPassing clouds.10 mph33%30.27 "HgN/A
12:30 PM88 °FPassing clouds.9 mph33%30.27 "HgN/A
12:00 PM86 °FPassing clouds.6 mph35%30.27 "HgN/A
11:30 AM84 °FSunny.12 mph40%30.27 "Hg10 mi
11:00 AM86 °FPassing clouds.7 mph35%30.27 "HgN/A
Weather by CustomWeather, © 2015

See weather overviewHow to use our weather pages